Rogers, AR

3:40 AM CDT on April 23, 2018 (GMT -0500)
Rogers Municipal-Carter

Weather History for KROG - July, 2013

Change the Weather History Date:

Wednesday, July 24, 2013

  Actual Average Record
Temperature  
Mean Temperature 76 °F -  
Max Temperature 84 °F 84 °F 100 °F (2011)
Min Temperature 68 °F 67 °F 55 °F (2000)
Cooling Degree Days 11    
Growing Degree Days 26 (Base 50)    
Moisture  
Dew Point 68 °F    
Average Humidity 82    
Maximum Humidity 94    
Minimum Humidity 56    
Precipitation  
Precipitation 0.77 in - - ()
Sea Level Pressure  
Sea Level Pressure 29.99 in    
Wind  
Wind Speed 10 mph (NW)    
Max Wind Speed 22 mph    
Max Gust Speed 40 mph    
Visibility 10 miles    
Events Rain , Thunderstorm    
Averages and records for this station are not official NWS values.
T = Trace of Precipitation, MM = Missing Value Source: NWS Daily Summary

Daily Weather History Graph

Daily Weather History Graph

Search for Another Location

Airport or City:

Astronomy

Jul. 24, 2013 Rise Set
Actual Time 6:16 AM CDT 8:28 PM CDT
Civil Twilight 5:47 AM CDT 8:57 PM CDT
Nautical Twilight 5:12 AM CDT 9:32 PM CDT
Astronomical Twilight 4:33 AM CDT 10:11 PM CDT
Moon 9:41 PM CDT (7/24) 8:32 AM CDT (7/24)
Length of Visible Light 15h 09m
Length of Day
14h 11m
Waning Gibbous, 94% of the Moon is Illuminated
Jul 24
Waning Gibbous
Jul 29
Last Quarter
Aug 6
New
Aug 14
First Quarter
Aug 20
Full

Hourly Weather History & Observations

Time (CDT) Temp. Heat Index Dew Point Humidity Pressure Visibility Wind Dir Wind Speed Gust Speed Precip Events Conditions
12:57 AM 72.0 °F - 69.1 °F 91% 29.90 in 10.0 mi South 11.5 mph - 0.27 in Rain , Thunderstorm Light Rain
1:10 AM 71.6 °F - 69.8 °F 94% 29.94 in 10.0 mi SSW 15.0 mph - 0.01 in Rain Light Rain
1:32 AM 71.6 °F - 69.8 °F 94% 29.95 in 10.0 mi SSW 12.7 mph - 0.04 in Rain , Thunderstorm Light Rain
1:51 AM 71.6 °F - 69.8 °F 94% 30.03 in 10.0 mi NNW 12.7 mph 19.6 mph 0.07 in Rain , Thunderstorm Thunderstorms and Rain
1:54 AM 71.6 °F - 69.8 °F 94% 30.02 in 9.0 mi WNW 15.0 mph 24.2 mph 0.09 in Rain , Thunderstorm Thunderstorms and Rain
1:57 AM 71.1 °F - 69.1 °F 93% 29.99 in 7.0 mi WNW 13.8 mph 24.2 mph 0.15 in Rain , Thunderstorm Heavy Thunderstorms and Rain
2:10 AM 71.6 °F - 69.8 °F 94% 29.99 in 7.0 mi SW 16.1 mph - 0.12 in Rain , Thunderstorm Thunderstorms and Rain
2:16 AM 71.6 °F - 68.0 °F 88% 29.99 in 9.0 mi SW 11.5 mph - 0.15 in Rain , Thunderstorm Thunderstorms and Rain
2:33 AM 71.6 °F - 68.0 °F 88% 30.00 in 10.0 mi WSW 9.2 mph - 0.18 in Rain Rain
2:36 AM 71.6 °F - 68.0 °F 88% 30.00 in 10.0 mi SW 10.4 mph - 0.20 in Rain , Thunderstorm Rain
2:50 AM 69.8 °F - 68.0 °F 94% 30.01 in 10.0 mi SW 13.8 mph - 0.24 in Rain Light Rain
2:57 AM 70.0 °F - 68.0 °F 93% 29.95 in 10.0 mi SSW 19.6 mph - 0.25 in Rain Light Rain
3:57 AM 71.1 °F - 68.0 °F 90% 29.88 in 10.0 mi South 21.9 mph 40.3 mph 0.09 in Rain Light Rain
4:57 AM 69.1 °F - 66.0 °F 90% 29.89 in 10.0 mi NW 3.5 mph - 0.01 in   Clear
5:57 AM 68.0 °F - 66.0 °F 93% 29.89 in 10.0 mi North 4.6 mph - N/A   Clear
6:57 AM 68.0 °F - 66.0 °F 93% 29.93 in 10.0 mi Calm Calm - N/A   Clear
7:49 AM 68.0 °F - 66.2 °F 94% 30.00 in 10.0 mi NW 5.8 mph - N/A   Partly Cloudy
7:57 AM 69.8 °F - 66.2 °F 88% 30.00 in 10.0 mi NW 5.8 mph - N/A   Mostly Cloudy
7:59 AM 69.1 °F - 66.9 °F 93% 29.96 in 10.0 mi NW 5.8 mph - N/A   Mostly Cloudy
8:04 AM 69.8 °F - 66.2 °F 88% 30.00 in 10.0 mi NNW 6.9 mph - N/A   Mostly Cloudy
8:36 AM 69.8 °F - 68.0 °F 94% 30.01 in 10.0 mi NNW 5.8 mph - N/A   Overcast
8:57 AM 71.1 °F - 68.0 °F 90% 29.98 in 10.0 mi North 5.8 mph - N/A   Mostly Cloudy
9:05 AM 71.6 °F - 68.0 °F 88% 30.02 in 10.0 mi NNW 3.5 mph - N/A   Mostly Cloudy
9:26 AM 71.6 °F - 68.0 °F 88% 30.03 in 10.0 mi North 5.8 mph - N/A   Overcast
9:29 AM 71.6 °F - 68.0 °F 88% 30.03 in 10.0 mi North 8.1 mph - N/A   Overcast
9:35 AM 71.6 °F - 68.0 °F 88% 30.03 in 10.0 mi North 5.8 mph - N/A   Overcast
9:53 AM 71.6 °F - 68.0 °F 88% 30.04 in 10.0 mi NNW 5.8 mph - N/A   Overcast
9:57 AM 73.0 °F - 68.0 °F 84% 30.00 in 10.0 mi NNW 6.9 mph - N/A   Overcast
10:34 AM 75.2 °F - 68.0 °F 78% 30.04 in 10.0 mi NNW 9.2 mph - N/A   Mostly Cloudy
10:49 AM 75.2 °F - 66.2 °F 73% 30.05 in 10.0 mi Variable 6.9 mph - N/A   Overcast
10:57 AM 75.9 °F - 66.9 °F 74% 30.01 in 10.0 mi North 11.5 mph - N/A   Overcast
11:57 AM 75.9 °F - 66.9 °F 74% 30.01 in 10.0 mi NNW 6.9 mph - N/A   Overcast
12:08 PM 78.8 °F - 66.2 °F 65% 30.05 in 10.0 mi NNE 8.1 mph - N/A   Mostly Cloudy
12:18 PM 78.8 °F - 66.2 °F 65% 30.05 in 10.0 mi NNE 9.2 mph - N/A   Mostly Cloudy
12:31 PM 78.8 °F - 66.2 °F 65% 30.05 in 10.0 mi NNW 5.8 mph - N/A   Mostly Cloudy
12:57 PM 79.0 °F - 66.9 °F 66% 30.00 in 10.0 mi NW 9.2 mph - N/A   Mostly Cloudy
1:57 PM 82.0 °F 83.8 °F 64.9 °F 56% 29.99 in 10.0 mi NNW 9.2 mph - N/A   Clear
2:57 PM 82.0 °F 84.5 °F 66.9 °F 60% 29.99 in 10.0 mi North 8.1 mph - N/A   Overcast
3:57 PM 82.9 °F 85.4 °F 66.9 °F 58% 29.98 in 10.0 mi Variable 5.8 mph - N/A   Overcast
4:57 PM 84.0 °F 87.0 °F 68.0 °F 58% 29.97 in 10.0 mi NNW 5.8 mph - N/A   Mostly Cloudy
5:57 PM 82.9 °F 85.4 °F 66.9 °F 58% 29.96 in 10.0 mi North 4.6 mph - N/A   Clear
6:57 PM 82.9 °F 85.4 °F 66.9 °F 58% 29.95 in 10.0 mi NNE 8.1 mph - N/A   Clear
7:57 PM 81.0 °F 84.1 °F 69.1 °F 67% 29.97 in 10.0 mi NNE 5.8 mph - N/A   Scattered Clouds
8:57 PM 77.0 °F - 68.0 °F 74% 29.99 in 10.0 mi NNE 3.5 mph - N/A   Clear
9:57 PM 75.0 °F - 68.0 °F 79% 30.00 in 10.0 mi Calm Calm - N/A   Clear
10:57 PM 73.0 °F - 68.0 °F 84% 30.01 in 10.0 mi Calm Calm - N/A   Clear
11:57 PM 72.0 °F - 66.9 °F 84% 30.03 in 10.0 mi Calm Calm - N/A   Clear